Hourly Data Report for September 27, 2017

All times are specified in Local Standard Time (LST). Add 1 hour to adjust for Daylight Saving Time where and when it is observed.

ALERT CLIMATE
NUNAVUT

82°30'00.000" N
62°20'00.000" W
65.40 m
2400305
71355
ZLT

Download Data

Hourly Data (September 2017)
Hourly Data Report for September 27, 2017
Temp Definition
°C
Dew Point Temp Definition
°C
Rel Hum Definition
%
Wind Dir Definition
10's deg

Wind Spd Definition
km/h
Visibility Definition
km
Stn Press Definition
kPa
Hmdx Definition


Wind Chill Definition


Weather Definition


TIME
00:00 -17.8 -19.4 88   0   100.30     LegendNANA
01:00 -16.6 -18.1 89 9 3   100.26   -19 LegendNANA
02:00 -17.8 -19.4 88 8 5   100.22   -22 LegendNANA
03:00 -17.6 -19.2 87 8 4   100.22   -21 LegendNANA
04:00 -19.6 -21.4 86 29 5   100.15   -24 LegendNANA
05:00 -18.7 -20.4 87 9 6   100.14   -24 LegendNANA
06:00 -17.7 -19.2 88 23 2   100.13   -19 LegendNANA
07:00 -17.4 -18.8 89   0   100.10     LegendNANA
08:00 -15.8 -17.2 89 11 2   100.05   -17 LegendNANA
09:00 -18.5 -20.2 87 9 5   100.02   -23 LegendNANA
10:00 -17.1 -18.6 88 8 5   99.95   -21 LegendNANA
11:00
12:00
13:00
14:00
15:00 -6.2 -7.3 92 24 14   99.80   -12 LegendNANA
16:00 -5.1 -10.3 67 27 16   99.83   -11 LegendNANA
17:00 -5.7 -10.1 71 26 23   99.89   -13 LegendNANA
18:00 -5.9 -10.6 70 28 29   99.93   -14 LegendNANA
19:00 -6.3 -10.6 72 27 17   99.94   -13 LegendNANA
20:00 -5.2 -10.8 65 24 21   99.93   -12 LegendNANA
21:00 -7.2 -12.3 67 24 12   99.95   -13 LegendNANA
22:00 -13.6 -16.0 82 1 13   99.95   -21 LegendNANA
23:00 -14.2 -16.1 86 2 4   99.99   -17 LegendNANA

Notes on Data Quality.

Legend

  • E = Estimated
  • M = Missing
  • NA = Not Available
  • ‡ = Partner data that is not subject to review by the National Climate Archives
Date modified: